User: anonymous   Login
Location: Unspecified
(0.0000°N, 0.0000°E)
Time: 14:32:46
(UTC+00:00)
Language:

Hamsat - Orbit

View from above orbital plane
View from above orbital plane
View from above satellite
View from above satellite

Ground track
Ground track

The orbit data is extracted from the following two-line orbital elements,

1 28650U 05017B   19294.24611656 +.00000269 +00000-0 +34224-4 0  9996
2 28650 097.7657 255.9656 0023248 176.0289 184.1117 14.89185373783486
Epoch (UTC): 21 October 2019 05:54:24
Eccentricity: 0.0023248
inclination: 97.7657°
perigee height: 584 km
apogee height: 617 km
right ascension of ascending node: 255.9656°
argument of perigee: 176.0289°
revolutions per day: 14.89185373
mean anomaly at epoch: 184.1117°
orbit number at epoch: 78348

The dashed part of the orbit path shows where the satellite is in the earth's shadow,  

DLR